Location: Newark
(48.1500°N, 2.9667°W)
Time: 13:39:52
(UTC+00:00)

A-11 Canister half - Pass Details

Date: 02 February 2020
Orbit: 1517 x 1683 km, 47.2° (Epoch: 24 February)

Event Time Altitude Azimuth Distance (km) Brightness Sun altitude
Exits shadow 06:07:53 11° 244° (WSW) 3,565 10.4 -15.4°
Maximum altitude 06:08:54 12° 237° (WSW) 3,548 10.5 -15.3°
Drops below altitude 10° 06:11:41 10° 219° (SW) 3,684 10.7 -14.8°
Sets 06:17:39 0° 190° (S) 4,686 11.6 -13.8°
